PST,Max TemperatureF,Mean TemperatureF,Min TemperatureF,Max Dew PointF,MeanDew PointF,Min DewpointF,Max Humidity, Mean Humidity, Min Humidity, Max Sea Level PressureIn, Mean Sea Level PressureIn, Min Sea Level PressureIn, Max VisibilityMiles, Mean VisibilityMiles, Min VisibilityMiles, Max Wind SpeedMPH, Mean Wind SpeedMPH, Max Gust SpeedMPH,PrecipitationIn, CloudCover, Events, WindDirDegrees
2011-11-1,80,65,49,53,41,4,77,48,19,29.96,29.90,29.84,10,8,7,12,2,16,0.00,0,,300
2011-11-2,77,71,64,8,0,-7,7,6,5,30.14,30.05,29.98,10,10,9,23,14,39,0.00,0,,45
2011-11-3,78,63,48,52,30,7,47,28,9,30.05,29.94,29.84,10,10,9,15,5,21,0.00,2,,340
2011-11-4,59,55,50,52,48,43,93,80,66,29.87,29.77,29.69,10,8,2,16,3,23,0.33,7,Rain,264
2011-11-5,62,51,40,43,39,32,92,64,35,30.02,29.95,29.81,10,9,2,12,3,15,0.00,1,,285
2011-11-6,58,49,40,48,44,37,83,75,67,30.03,29.99,29.93,10,9,3,8,3,12,0.09,5,Rain,38
2011-11-7,65,53,40,43,39,33,96,64,31,30.19,30.09,30.01,10,10,8,12,4,16,0.01,0,,72
2011-11-8,70,56,41,40,33,24,83,51,18,30.24,30.20,30.14,10,10,9,9,3,12,0.00,1,,61
2011-11-9,75,59,43,33,22,15,62,38,13,30.26,30.18,30.12,10,10,10,15,7,23,0.00,1,,62
2011-11-10,75,61,46,32,25,18,46,30,13,30.17,30.08,29.99,10,10,10,15,5,20,0.00,3,,73
2011-11-11,74,64,54,36,31,27,51,34,17,29.96,29.86,29.80,10,10,10,16,4,21,0.00,4,,58
2011-11-12,63,57,50,52,45,33,83,61,39,29.86,29.81,29.77,10,10,6,16,3,22,0.15,6,Rain,93
2011-11-13,73,60,47,49,47,44,86,62,38,29.94,29.87,29.82,10,10,10,14,3,16,0.00,2,,274
2011-11-14,69,59,48,52,48,45,86,66,45,29.99,29.94,29.87,10,10,10,10,2,15,0.00,3,,289
2011-11-15,69,62,55,51,49,48,86,68,49,30.07,30.02,29.96,10,8,6,9,1,13,0.00,3,,273
2011-11-16,72,60,47,52,48,45,93,67,41,30.13,30.09,30.03,6,4,2,7,1,10,0.00,3,,359
2011-11-17,77,63,49,48,44,37,83,54,25,30.09,30.00,29.94,10,8,6,13,4,16,0.00,0,,340
2011-11-18,57,54,50,50,48,46,96,84,72,30.00,29.95,29.89,9,3,0,6,2,8,0.00,8,Fog,240
2011-11-19,64,57,49,46,45,43,86,67,48,29.97,29.91,29.86,10,10,7,13,2,16,0.00,7,,161
2011-11-20,61,54,46,52,47,40,86,69,51,29.98,29.94,29.89,10,8,2,16,4,22,0.09,7,Rain,102
2011-11-21,61,55,48,49,46,43,93,72,51,30.25,30.11,29.98,10,6,0,9,2,12,0.01,5,Fog,204
2011-11-22,72,56,40,46,41,38,92,63,33,30.25,30.18,30.08,10,8,2,8,2,29,0.00,0,,80
2011-11-23,69,56,42,50,43,36,76,55,34,30.05,29.98,29.90,10,8,3,8,4,12,0.00,3,,283
2011-11-24,60,55,50,50,45,41,89,70,51,30.09,30.01,29.94,10,8,3,7,1,10,0.00,5,,267
2011-11-25,68,54,40,47,43,39,92,67,42,30.22,30.16,30.11,10,8,3,10,3,13,0.00,0,,338
2011-11-26,82,63,44,43,28,17,80,45,10,30.29,30.23,30.18,10,10,7,15,7,29,0.00,0,,53
2011-11-27,83,67,50,31,25,19,41,26,10,30.28,30.22,30.17,10,10,10,13,7,17,0.00,0,,74
2011-11-28,85,67,48,39,33,26,50,32,13,30.15,30.09,30.02,10,10,10,8,3,10,0.00,2,,55
2011-11-29,86,68,50,42,35,27,54,33,11,30.07,30.03,29.98,10,10,10,8,2,12,0.00,3,,73
2011-11-30,73,58,43,49,39,27,70,48,25,30.00,29.87,29.73,10,8,4,14,3,18,0.00,2,,344